Location: Freistadt
(48.5112°N, 14.5013°E)
Time: 16:24:20
(UTC+02:00)

M-CUBED/EXP-1 PRIME - Visible Passes

Search period start: 01 April 2023 00:00
Search period end: 11 April 2023 00:00
Orbit: 411 x 586 km, 101.7° (Epoch: 31 March)

Date Brightness Start Highest point End Pass type
(mag) Time Alt. Az. Time Alt. Az. Time Alt. Az.
01 Apr ? 01:23:40 10° NNE 01:23:50 11° NNE 01:23:50 11° NNE visible
01 Apr ? 02:57:20 10° N 02:58:28 16° NNW 02:58:28 16° NNW visible
02 Apr ? 02:36:55 10° N 02:38:11 18° N 02:38:11 18° N visible
03 Apr ? 02:16:36 10° NNE 02:17:49 19° N 02:17:49 19° N visible
04 Apr ? 01:56:22 10° NNE 01:57:23 17° NNE 01:57:23 17° NNE visible
04 Apr ? 03:30:56 10° NNW 03:32:01 13° NW 03:32:01 13° NW visible
05 Apr ? 01:36:12 10° NNE 01:36:53 14° NNE 01:36:53 14° NNE visible
05 Apr ? 03:09:58 10° N 03:11:31 17° NNW 03:11:31 17° NNW visible
06 Apr ? 01:16:13 10° NE 01:16:19 11° NE 01:16:19 11° NE visible
06 Apr ? 02:49:16 10° N 02:50:57 21° NNW 02:50:57 21° NNW visible
07 Apr ? 02:28:40 10° NNE 02:30:19 23° N 02:30:19 23° N visible
08 Apr ? 02:08:08 10° NNE 02:09:37 21° NNE 02:09:37 21° NNE visible
08 Apr ? 03:42:52 10° NNW 03:44:14 13° NW 03:44:14 13° NW visible
09 Apr ? 01:47:43 10° NNE 01:48:51 18° NE 01:48:51 18° NE visible
09 Apr ? 03:21:33 10° N 03:23:27 18° NW 03:23:27 18° NW visible
10 Apr ? 01:27:27 10° NE 01:28:00 13° NE 01:28:00 13° NE visible
10 Apr ? 03:00:33 10° N 03:02:37 24° NNW 03:02:37 24° NNW visible
